Pineville, WV

1:13 AM EDT on June 28, 2017 (GMT -0400)
Pineville

Weather History for KI16 - May, 2013

Change the Weather History Date:

Sunday, May 26, 2013

  Actual Average (KBKW) Record (KBKW)
Temperature  
Mean Temperature 58 °F -  
Max Temperature 72 °F 71 °F 90 °F (1926)
Min Temperature 44 °F 51 °F 30 °F (1934)
Degree Days  
Heating Degree Days 7    
Growing Degree Days 8 (Base 50)    
Moisture  
Dew Point 46 °F    
Average Humidity 69    
Maximum Humidity 100    
Minimum Humidity 35    
Precipitation  
Precipitation 0.00 in - - ()
Sea Level Pressure  
Sea Level Pressure 30.32 in    
Wind  
Wind Speed - (North)    
Max Wind Speed -    
Max Gust Speed -    
Visibility 10 miles    
Events      
Averages and records for this station are not official NWS values.
T = Trace of Precipitation, MM = Missing Value Source: NWS Daily Summary

Daily Weather History Graph

Daily Weather History Graph

Search for Another Location

Airport or City:

Trip Planner

Search our weather history database for the weather conditions in past years. The results will help you decide how hot, cold, wet, or windy it might be!

Date:

Astronomy

May. 26, 2013 Rise Set
Actual Time 6:09 AM EDT 8:37 PM EDT
Civil Twilight 5:38 AM EDT 9:08 PM EDT
Nautical Twilight 5:01 AM EDT 9:45 PM EDT
Astronomical Twilight 4:20 AM EDT 10:27 PM EDT
Moon 10:24 PM EDT (5/26) 7:36 AM EDT (5/26)
Length of Visible Light 15h 29m
Length of Day
14h 28m
Waning Gibbous, 97% of the Moon is Illuminated
May 26
Waning Gibbous
May 31
Last Quarter
Jun 8
New
Jun 16
First Quarter
Jun 23
Full

Hourly Weather History & Observations

Time (EDT) Temp. Dew Point Humidity Pressure Visibility Wind Dir Wind Speed Gust Speed Precip Events Conditions
12:15 AM 45.1 °F 45.0 °F 99% 30.33 in 10.0 mi North - - N/A   Clear
12:35 AM 44.8 °F 44.8 °F 100% 30.34 in 10.0 mi North - - N/A   Clear
12:55 AM 44.6 °F 44.6 °F 100% 30.34 in 10.0 mi North - - N/A   Mostly Cloudy
1:15 AM 45.5 °F 45.5 °F 100% 30.34 in 10.0 mi North - - N/A   Scattered Clouds
1:35 AM 46.0 °F 46.0 °F 100% 30.33 in 10.0 mi North - - N/A   Scattered Clouds
1:55 AM 46.8 °F 46.6 °F 99% 30.33 in 10.0 mi North - - N/A   Mostly Cloudy
2:15 AM 47.5 °F 47.1 °F 99% 30.33 in 10.0 mi North - - N/A   Overcast
2:35 AM 47.8 °F 46.8 °F 96% 30.32 in 10.0 mi North - - N/A   Overcast
2:55 AM 47.8 °F 46.6 °F 95% 30.32 in 10.0 mi North - - N/A   Overcast
3:15 AM 48.0 °F 46.6 °F 95% 30.32 in 10.0 mi North - - N/A   Overcast
3:35 AM 47.8 °F 46.4 °F 95% 30.32 in 10.0 mi North - - N/A   Overcast
3:55 AM 47.8 °F 46.4 °F 95% 30.32 in 10.0 mi North - - N/A   Overcast
4:15 AM 48.4 °F 46.8 °F 94% 30.32 in 10.0 mi North - - N/A   Overcast
4:35 AM 48.2 °F 46.6 °F 94% 30.32 in 10.0 mi North - - N/A   Overcast
4:55 AM 48.2 °F 46.6 °F 94% 30.32 in 10.0 mi North - - N/A   Overcast
5:15 AM 48.2 °F 47.3 °F 97% 30.32 in 10.0 mi North - - N/A   Overcast
5:35 AM 48.2 °F 46.8 °F 95% 30.33 in 10.0 mi North - - N/A   Overcast
5:55 AM 48.2 °F 46.9 °F 95% 30.33 in 10.0 mi North - - N/A   Overcast
6:15 AM 48.4 °F 47.3 °F 96% 30.33 in 10.0 mi North - - N/A   Overcast
6:35 AM 48.4 °F 47.3 °F 96% 30.32 in 10.0 mi North - - N/A   Overcast
6:55 AM 48.9 °F 47.3 °F 94% 30.33 in 10.0 mi North - - N/A   Overcast
7:15 AM 49.6 °F 47.7 °F 93% 30.33 in 10.0 mi North - - N/A   Overcast
7:35 AM 50.0 °F 47.7 °F 92% 30.34 in 10.0 mi North - - N/A   Scattered Clouds
7:55 AM 49.5 °F 47.3 °F 92% 30.34 in 10.0 mi North - - N/A   Clear
8:15 AM 50.7 °F 48.2 °F 91% 30.34 in 10.0 mi North - - N/A   Clear
8:35 AM 54.3 °F 48.7 °F 81% 30.34 in 10.0 mi North - - N/A   Clear
8:55 AM 56.7 °F 48.6 °F 74% 30.35 in 10.0 mi North - - N/A   Clear
9:15 AM 59.2 °F 48.4 °F 67% 30.35 in 10.0 mi North - - N/A   Clear
9:35 AM 60.6 °F 45.0 °F 56% 30.35 in 10.0 mi North - - N/A   Clear
9:55 AM 62.1 °F 43.5 °F 51% 30.35 in 10.0 mi North - - N/A   Clear
10:15 AM 62.8 °F 41.9 °F 46% 30.34 in 10.0 mi North - - N/A   Clear
10:35 AM 63.7 °F 43.2 °F 47% 30.34 in 10.0 mi North - - N/A   Clear
10:55 AM 65.3 °F 43.2 °F 45% 30.34 in 10.0 mi North - - N/A   Clear
11:15 AM 65.7 °F 42.3 °F 43% 30.35 in 10.0 mi North - - N/A   Clear
11:35 AM 65.8 °F 42.6 °F 43% 30.34 in 10.0 mi North - - N/A   Clear
11:55 AM 66.6 °F 41.5 °F 40% 30.35 in 10.0 mi North - - N/A   Clear
12:15 PM 68.2 °F 41.4 °F 38% 30.34 in 10.0 mi North - - N/A   Clear
12:35 PM 68.0 °F 40.8 °F 37% 30.34 in 10.0 mi North - - N/A   Clear
12:55 PM 68.4 °F 42.3 °F 39% 30.33 in 10.0 mi North - - N/A   Clear
1:15 PM 68.7 °F 43.5 °F 40% 30.32 in 10.0 mi North - - N/A   Clear
1:35 PM 68.9 °F 41.7 °F 37% 30.32 in 10.0 mi North - - N/A   Clear
1:55 PM 69.8 °F 43.5 °F 39% 30.32 in 10.0 mi North - - N/A   Clear
2:15 PM 70.2 °F 42.6 °F 37% 30.31 in 10.0 mi North - - N/A   Clear
2:35 PM 70.7 °F 43.0 °F 37% 30.32 in 10.0 mi North - - N/A   Clear
2:55 PM 70.7 °F 43.2 °F 37% 30.31 in 10.0 mi North - - N/A   Clear
3:15 PM 71.4 °F 44.4 °F 38% 30.30 in 10.0 mi North - - N/A   Clear
3:35 PM 71.4 °F 43.9 °F 37% 30.30 in 10.0 mi North - - N/A   Clear
3:55 PM 71.2 °F 44.8 °F 39% 30.30 in 10.0 mi North - - N/A   Clear
4:15 PM 72.0 °F 44.6 °F 37% 30.29 in 10.0 mi North - - N/A   Clear
4:35 PM 71.4 °F 43.7 °F 37% 30.29 in 10.0 mi North - - N/A   Clear
4:55 PM 71.8 °F 43.3 °F 36% 30.29 in 10.0 mi North - - N/A   Clear
5:15 PM 71.6 °F 42.8 °F 35% 30.28 in 10.0 mi North - - N/A   Clear
5:35 PM 72.0 °F 43.3 °F 36% 30.29 in 10.0 mi North - - N/A   Clear
5:55 PM 71.6 °F 42.6 °F 35% 30.29 in 10.0 mi North - - N/A   Clear
6:15 PM 69.1 °F 41.9 °F 37% 30.28 in 10.0 mi North - - N/A   Clear
6:35 PM 67.8 °F 45.7 °F 45% 30.28 in 10.0 mi North - - N/A   Clear
6:55 PM 68.5 °F 44.6 °F 42% 30.29 in 10.0 mi North - - N/A   Clear
7:15 PM 67.1 °F 45.5 °F 46% 30.29 in 10.0 mi North - - N/A   Clear
7:35 PM 66.6 °F 45.3 °F 46% 30.29 in 10.0 mi North - - N/A   Clear
7:55 PM 63.7 °F 50.0 °F 61% 30.29 in 10.0 mi North - - N/A   Clear
8:15 PM 60.3 °F 50.7 °F 71% 30.29 in 10.0 mi North - - N/A   Clear
8:35 PM 58.6 °F 51.8 °F 78% 30.30 in 10.0 mi North - - N/A   Clear
8:55 PM 56.8 °F 50.4 °F 79% 30.29 in 10.0 mi North - - N/A   Clear
9:15 PM 55.2 °F 50.4 °F 84% 30.30 in 10.0 mi North - - N/A   Clear
9:35 PM 54.0 °F 50.0 °F 86% 30.30 in 10.0 mi North - - N/A   Clear
9:55 PM 52.7 °F 49.5 °F 89% 30.30 in 10.0 mi North - - N/A   Clear
10:15 PM 52.0 °F 49.1 °F 90% 30.30 in 10.0 mi North - - N/A   Clear
10:35 PM 51.1 °F 48.9 °F 92% 30.30 in 10.0 mi North - - N/A   Clear
10:55 PM 50.4 °F 48.4 °F 93% 30.30 in 10.0 mi North - - N/A   Clear
11:15 PM 50.0 °F 48.2 °F 94% 30.30 in 10.0 mi North - - N/A   Clear
11:35 PM 49.3 °F 47.8 °F 95% 30.30 in 10.0 mi North - - N/A   Clear
11:55 PM 49.1 °F 48.0 °F 96% 30.31 in 10.0 mi North - - N/A   Clear